Location: Vienna
(48.2082°N, 16.3738°E)
Time: 09:42:15
(UTC+02:00)

ISS - Pass Details

Date: 18 July 2018
Orbit: 402 x 408 km, 51.6° (Epoch: 23 July)

Event Time Altitude Azimuth Distance (km) Brightness Sun altitude
Rises 03:58:45 0° 292° (WNW) 2,334 -0.2 -10.1°
Reaches altitude 10° 04:00:51 10° 292° (WNW) 1,472 -1.2 -9.9°
Maximum altitude 04:04:09 89° 198° (SSW) 413 -3.8 -9.5°
Drops below altitude 10° 04:07:27 10° 114° (ESE) 1,469 -0.7 -9.1°
Sets 04:09:32 0° 114° (ESE) 2,327 0.3 -8.9°
